Weather observations for the past three days for
Kingsville, Naval Air Station
Imperial (Metric)
Date Time (cdt) Wind (mph) Vis. (mi.) Weather Sky Cond. Temperature (ºF) Relative Humidity Wind Chill (°F) Heat Index (°F) Pressure Precipitation (in)
Air Dwpt 6 hour altimeter (in) sea level (mb) 1 hr 3 hr 6 hr
Max. Min.
20 05:56 Calm 10.00 Overcast SCT026 BKN033 OVC044 82.9 79 88% 94 29.83 1009.7
20 04:56 Calm 10.00 Overcast FEW025 BKN032 OVC045 82.9 81 94% 96 29.81 1009.3
20 03:56 Calm 10.00 Light Rain SCT015 BKN027 OVC110 82 79 90% 92 29.81 1009.1 0.51 0.69
20 02:56 Calm 4.00 Light Rain Fog/Mist SCT014 BKN022 OVC070 82 79 90% 92 29.82 1009.4 0.17
20 00:56 Calm 10.00 Light Rain SCT015 SCT028 OVC046 82.9 80.1 84 81 91% 95 29.82 1009.4 0.1 0.72
19 23:56 Calm 10.00 Overcast FEW013 BKN046 OVC060 82.9 81 94% 96 29.83 1009.7 0.18
19 22:56 E 13 9.00 Light Rain FEW019 BKN030 OVC039 82.9 80.1 91% 95 29.82 1009.5 0.14
19 21:56 E 13 G 24 5.00 Heavy Rain Fog/Mist SCT017 BKN027 OVC050 82.9 80.1 91% 95 29.8 1008.8 0.22 0.3
19 20:56 E 12 6.00 Light Rain Fog/Mist FEW019 BKN032 OVC055 82.9 79 88% 94 29.79 1008.5 0.05
19 19:56 NE 12 G 22 10.00 Light Rain SCT017 BKN026 OVC040 82 79 90% 92 29.78 1008.1 0.03
19 18:56 NE 18 G 33 1.75 Heavy Rain Fog/Mist FEW011 BKN018 OVC055 81 79 82 80.1 94% 89 29.75 1007.1 0.17 0.83
19 17:56 NE 13 G 24 5.00 Light Rain Fog/Mist SCT011 BKN021 OVC029 80.1 78.1 94% 86 29.76 1007.3 0.14
19 16:56 NE 12 G 26 10.00 Light Rain SCT007 BKN011 OVC017 80.1 78.1 94% 86 29.77 1007.6 0.07
19 15:56 NE 16 G 29 8.00 Light Rain FEW007 OVC016 80.1 77 90% 86 29.77 1007.7 0.36 0.45
19 14:56 N 16 G 24 10.00 Light Rain BKN010 BKN026 OVC050 81 78.1 91% 89 29.77 1007.8 0.05
19 13:56 NE 17 G 28 10.00 Light Rain SCT009 OVC012 81 78.1 91% 89 29.79 1008.4 0.04
19 11:56 NE 14 4.00 Heavy Rain Fog/Mist BKN007 OVC018 80.1 78.1 94% 86 29.79 1008.6 0.31
19 10:56 NE 18 G 32 4.00 Rain Fog/Mist SCT006 BKN013 OVC039 81 78.1 91% 89 29.79 1008.3 0.44
19 09:56 NE 12 G 20 4.00 Rain Fog/Mist BKN007 OVC011 81 78.1 91% 89 29.78 1008.0 0.25 0.63
19 08:56 N 12 8.00 Light Rain BKN013 OVC019 81 78.1 91% 89 29.77 1007.7 0.03
19 06:56 N 8 10.00 Light Rain FEW022 FEW045 OVC095 79 77 81 79 94% 83 29.75 1007.0 0.37 0.44
19 05:56 N 6 8.00 Light Rain BKN010 BKN018 OVC026 81 78.1 91% 89 29.73 1006.5 0.06
19 04:56 N 7 10.00 Overcast BKN015 OVC022 80.1 77 90% 86 29.73 1006.5
19 03:56 N 8 10.00 Mostly Cloudy SCT017 BKN026 80.1 77 90% 86 29.73 1006.5 0.01 0.01
19 02:56 N 7 8.00 Light Rain BKN016 BKN021 OVC045 81 77 88% 88 29.76 1007.3
19 01:56 NE 9 10.00 Light Rain FEW020 BKN035 BKN042 81 77 88% 88 29.78 1008.0
19 00:56 E 7 10.00 Light Rain FEW028 FEW038 BKN049 81 77 89.1 81 88% 88 29.79 1008.4 0.01 0.01
18 23:56 NE 6 10.00 Mostly Cloudy FEW035 SCT042 BKN049 82.9 77 82% 92 29.8 1008.7
18 22:56 E 12 10.00 Mostly Cloudy FEW020 FEW050 SCT100 BKN250 84 75 74% 92 29.79 1008.6
18 21:56 E 9 10.00 Mostly Cloudy SCT020 BKN045 BKN100 BKN250 84 75.9 77% 93 29.78 1008.2
18 20:56 E 16 G 26 10.00 Mostly Cloudy SCT025 BKN065 BKN100 BKN250 82.9 75.9 79% 91 29.77 1007.8
18 19:56 E 17 G 28 10.00 Mostly Cloudy SCT025 BKN055 BKN100 87.1 73 63% 95 29.76 1007.4
18 18:56 E 16 G 28 10.00 Mostly Cloudy FEW028 SCT049 BKN080 88 73.9 96.1 82.9 63% 97 29.74 1006.8
18 17:56 E 22 10.00 Mostly Cloudy and Breezy FEW030TCU SCT040 BKN080 87.1 75.9 70% 98 29.74 1006.8
18 16:56 E 21 G 33 10.00 Mostly Cloudy and Breezy SCT037 BKN048 BKN100 BKN250 95 73.9 51% 106 29.74 1006.6
18 15:56 E 22 G 32 10.00 Mostly Cloudy and Breezy SCT039 BKN060 BKN075 BKN250 93.9 73 51% 103 29.74 1006.9
18 14:56 E 24 G 35 10.00 Mostly Cloudy and Breezy SCT050 SCT070 BKN100 BKN250 95 75 53% 107 29.75 1007.2
18 13:56 E 14 G 24 10.00 Mostly Cloudy SCT036TCU SCT044 BKN060 BKN250 95 73 49% 105 29.77 1007.6
18 12:56 E 13 G 23 10.00 Overcast SCT041 OVC065 93 73.9 95 81 54% 103 29.77 1007.7
18 11:56 E 13 G 21 10.00 Mostly Cloudy SCT041TCU BKN060 BKN250 95 73 49% 105 29.76 1007.6
18 10:56 E 14 G 22 10.00 Mostly Cloudy SCT040TCU BKN050 BKN070 BKN250 93 72 50% 101 29.76 1007.5
18 09:56 E 9 10.00 Mostly Cloudy SCT025 BKN070 BKN250 90 75.9 63% 102 29.77 1007.6
18 08:56 E 6 G 17 10.00 Partly Cloudy FEW033 SCT080 SCT250 86 75 70% 95 29.77 1007.7
18 07:56 SE 10 10.00 Mostly Cloudy SCT033TCU BKN070 BKN250 84 75 74% 92 29.76 1007.5
18 06:56 E 8 10.00 Mostly Cloudy SCT028 BKN034 BKN070 81 75.9 84.9 80.1 85% 87 29.74 1006.9 0.02
18 05:56 E 6 10.00 Partly Cloudy FEW027 SCT036 82 75.9 82% 89 29.73 1006.4
18 04:56 E 6 10.00 Partly Cloudy SCT027 SCT065 81 75.9 85% 87 29.73 1006.4
18 02:56 SE 6 10.00 Mostly Cloudy BKN048 82 77 85% 90 29.75 1007.2 0.02
18 01:56 SE 9 10.00 Overcast FEW028 BKN047 OVC060 84.9 75.9 75% 94 29.77 1007.9
18 00:56 SE 12 10.00 Mostly Cloudy SCT027 BKN040 84.9 75 91.9 84 72% 93 29.79 1008.3
17 23:56 SE 10 10.00 Partly Cloudy SCT024 SCT030 84.9 75.9 75% 94 29.8 1008.7
17 22:56 SE 13 G 20 10.00 Partly Cloudy SCT027 86 75.2 70% 95 29.78 1008.2
17 21:56 SE 14 G 24 10.00 Partly Cloudy FEW025 FEW040 SCT065 84.9 75 72% 93 29.78 1008.0
17 20:56 SE 14 G 25 10.00 Mostly Cloudy FEW025 SCT045 BKN065 84 77 80% 94 29.77 1007.6
17 19:56 SE 15 G 28 10.00 Mostly Cloudy SCT040 BKN060 89.1 75 63% 99 29.75 1007.1
17 18:56 SE 18 G 32 10.00 Partly Cloudy FEW028 SCT040 91 75.9 100.9 90 61% 103 29.73 1006.4
17 17:56 E 17 G 32 10.00 Partly Cloudy SCT030 SCT065 93.9 75.9 56% 107 29.72 1006.2
17 16:56 SE 23 G 35 10.00 Mostly Cloudy and Breezy SCT035 BKN060 BKN250 93.9 75.9 56% 107 29.73 1006.5
17 15:56 SE 21 G 30 10.00 Mostly Cloudy and Breezy FEW042 BKN060 BKN250 97 75 49% 110 29.73 1006.5
17 14:56 SE 17 G 25 10.00 Partly Cloudy FEW042 SCT070 SCT250 100 75 45% 114 29.74 1006.8
17 13:56 SE 12 G 22 10.00 Mostly Cloudy SCT047 SCT065 BKN250 99 73.9 45% 111 29.75 1007.1
17 12:56 SE 16 G 24 10.00 Mostly Cloudy SCT041 SCT060 BKN250 96.1 75.9 99 82 52% 110 29.76 1007.4
17 11:56 SE 13 10.00 Mostly Cloudy SCT034 SCT050 BKN250 97 75.9 51% 111 29.77 1007.8
17 10:56 SE 12 10.00 Partly Cloudy FEW033 FEW055 SCT250 93.9 75.9 56% 107 29.77 1007.9
17 09:56 SE 10 10.00 Mostly Cloudy SCT026 SCT045 BKN250 91 77 64% 105 29.78 1008.1
17 08:56 S 8 10.00 Mostly Cloudy SCT026TCU BKN043 BKN055 BKN250 88 78.1 73% 102 29.78 1008.1
17 07:56 S 5 10.00 Partly Cloudy FEW027 SCT060 SCT250 82.9 79 88% 94 29.77 1007.9
Date Time (cdt) Wind (mph) Vis. (mi.) Weather Sky Cond. Air Dwpt Max. Min. Relative Humidity Wind Chill (°F) Heat Index (°F) altimeter (in) sea level (mb) 1 hr 3 hr 6 hr
6 hour
Temperature (ºF) Pressure Precipitation (in)